Theta_e
326 330 333 336 336 337 338 337 342 341 338 334 338 349 348 345 344 344 343 342 340 338 334 333 331 331 330 329 326 324 323 323 323 321 321 321 322 321 322 321 321 320 319 318
327 328 332 333 338 338 333 335 334 335 336 333 340 345 347 344 343 340 343 343 342 337 336 334 332 332 331 329 327 325 324 321 322 324 323 323 323 323 322 321 321 321 320 318
328 328 330 331 333 334 334 334 335 342 339 340 340 340 350 344 341 339 339 342 339 339 337 335 333 333 332 330 327 326 324 324 321 324 324 323 325 324 322 322 320 321 320 319
327 328 329 332 335 335 335 335 336 336 343 344 343 341 350 346 344 342 339 339 337 340 338 336 335 334 334 332 328 326 324 324 322 322 324 324 324 323 322 321 320 323 320 319
328 328 330 332 336 335 334 336 336 338 342 342 345 342 350 346 345 342 339 338 338 340 339 338 336 335 335 331 328 327 325 323 322 322 322 323 323 322 322 320 322 321 320 319
327 328 330 331 332 332 335 339 342 340 342 346 343 343 350 347 346 343 340 339 339 338 340 338 336 335 334 331 328 326 325 325 324 323 324 324 323 322 322 323 322 321 321 319
328 329 329 334 334 333 334 336 340 340 350 351 343 346 343 339 335 333 341 339 337 337 339 338 335 335 332 331 328 327 326 325 324 323 323 323 323 322 323 324 320 320 321 320
328 332 336 335 334 333 336 337 338 341 344 340 341 346 341 336 335 336 334 337 335 332 337 335 335 333 332 330 328 327 326 325 324 323 323 323 323 322 323 322 318 320 321 319
329 332 335 335 333 334 337 336 337 341 338 339 339 345 338 338 340 340 334 334 335 333 335 334 334 332 332 331 329 328 326 325 325 323 323 323 323 322 321 321 321 319 319 319
330 339 336 336 335 334 335 335 341 340 340 342 341 342 338 339 342 338 337 334 335 334 336 334 334 333 333 332 331 328 326 326 324 323 323 323 323 322 321 321 321 321 320 318
333 335 338 335 335 336 336 342 342 343 339 344 346 339 337 336 336 335 334 335 335 333 336 336 334 335 334 333 332 329 326 324 324 323 323 323 323 322 322 322 321 321 321 319
336 335 337 337 335 334 336 339 339 344 342 340 341 339 340 337 336 338 336 337 336 335 335 336 333 334 334 334 332 329 325 325 324 323 323 322 322 322 322 322 322 322 321 321
340 344 343 335 335 336 336 334 336 341 343 340 342 340 339 340 339 339 334 335 332 333 335 336 333 333 333 333 332 330 326 324 324 324 323 322 322 322 322 322 323 322 322 321
340 339 341 341 337 333 333 336 338 339 341 340 339 339 344 343 338 337 333 331 330 334 334 340 337 334 334 333 332 329 326 325 323 322 322 322 322 322 323 323 323 323 322 321
337 339 340 336 334 334 335 336 335 340 340 338 335 341 342 343 338 337 332 331 334 334 335 333 337 333 334 334 331 327 326 323 322 322 322 322 322 322 322 322 323 323 322 322
339 340 341 341 337 337 335 334 333 334 335 334 336 340 338 338 337 338 335 337 333 333 337 334 333 334 334 333 332 330 325 325 324 323 322 322 322 322 323 322 322 322 322 322
349 343 348 346 341 338 337 336 336 335 334 337 338 340 339 340 338 336 335 335 334 334 336 338 337 334 334 333 332 329 327 326 325 324 324 323 322 322 322 321 321 322 322 322
345 350 344 344 339 339 335 334 335 339 341 338 339 339 337 335 334 331 333 331 331 333 336 337 336 336 334 332 331 330 329 327 326 325 324 323 322 321 322 321 321 321 321 322
338 341 340 342 341 339 343 340 342 339 344 341 340 339 339 337 334 334 333 331 332 332 334 338 336 334 333 332 331 330 329 327 326 324 323 322 321 321 321 322 322 322 323 323
346 342 344 343 346 344 344 341 336 337 338 339 338 340 342 337 335 335 333 333 333 335 336 336 335 334 332 331 331 330 327 324 323 323 322 321 321 321 321 321 321 322 322 322
346 341 338 341 342 343 341 338 337 341 342 335 333 339 341 336 335 334 334 333 333 333 334 335 335 333 331 330 328 325 325 324 324 323 322 321 321 321 321 322 323 325 327 328
344 347 346 345 343 341 339 339 338 339 339 331 330 339 338 334 335 336 334 332 331 329 331 333 332 331 329 327 327 327 327 330 329 327 326 327 329 328 328 329 329 328 326 326
343 343 345 344 340 336 341 339 340 339 342 342 339 337 335 333 333 335 335 333 332 329 330 332 331 330 328 327 325 323 324 330 330 330 331 331 330 329 327 324 319 319 321 318
338 338 344 341 339 343 339 339 335 330 332 339 335 334 333 333 334 335 336 334 333 329 330 332 332 328 327 327 328 329 328 329 327 327 322 317 317 316 314 314 316 316 315 315
339 338 339 341 339 338 332 334 333 329 329 341 335 334 333 332 335 337 335 336 335 333 332 331 332 332 331 327 325 322 318 318 320 316 315 316 313 313 313 314 316 315 313 313
337 342 343 346 335 340 334 332 332 336 340 334 332 333 333 337 338 336 336 335 334 333 333 332 330 327 324 319 316 316 315 313 317 316 315 312 312 312 313 314 311 311 312 312
Wind_Speed
7 2 10 12 12 3 8 9 13 15 12 2 2 8 19 16 14 11 11 12 11 14 19 25 27 22 18 15 12 7 5 4 5 5 4 4 4 4 4 8 7 9 11 11
6 12 21 2 11 10 2 3 5 7 4 5 7 3 16 18 14 8 17 14 13 13 16 21 27 24 24 19 15 10 6 4 3 5 2 2 6 1 7 10 6 6 7 9
5 12 3 2 6 7 3 3 6 11 5 4 5 9 18 15 11 9 9 16 13 21 17 16 22 26 28 24 19 12 7 5 3 2 1 1 2 4 3 5 8 3 3 6
9 13 8 11 6 3 2 2 5 17 7 4 5 5 2 13 14 14 12 12 12 18 17 17 22 25 29 24 21 14 9 8 5 4 3 4 5 8 6 5 5 7 4 5
16 11 8 5 1 1 3 8 13 9 5 3 1 3 14 20 8 11 12 13 14 20 21 18 23 27 31 28 22 18 11 9 6 5 4 2 2 3 3 6 6 9 9 5
12 13 4 2 6 5 4 6 4 4 4 3 6 6 5 6 11 11 9 11 15 17 19 20 28 27 32 27 25 21 15 13 9 8 6 4 2 2 2 4 3 6 6 6
11 13 5 4 6 6 7 7 4 5 1 5 2 5 9 11 6 5 12 10 8 17 17 16 18 23 28 30 30 23 21 19 14 11 11 8 4 4 6 5 1 1 6 1
4 12 5 8 5 7 2 6 5 4 3 5 3 3 4 8 8 10 7 7 8 10 18 16 25 25 27 30 30 25 24 20 18 14 12 10 6 4 6 1 1 2 5 5
4 5 4 4 6 11 1 5 5 2 4 4 3 5 7 17 18 7 6 2 9 8 14 18 24 26 29 31 29 28 27 22 20 17 15 10 9 6 5 4 4 3 4 7
9 2 3 3 5 3 7 2 11 8 4 4 6 3 5 7 13 11 6 7 1 8 18 17 21 28 27 33 29 24 24 22 22 17 15 11 13 8 7 6 7 8 6 7
9 6 1 5 2 2 7 4 4 4 3 0 2 6 6 7 6 6 6 6 13 28 17 17 19 27 33 31 29 25 24 23 21 17 15 13 16 7 8 8 7 8 8 8
5 4 3 8 3 6 6 9 8 4 4 3 2 6 6 5 6 3 6 10 10 25 11 17 24 28 29 30 30 28 24 19 20 19 18 16 14 12 11 10 10 10 10 10
3 3 4 8 5 2 4 5 6 5 4 4 4 5 3 1 5 1 16 14 15 20 22 26 17 21 24 31 30 29 22 18 15 20 18 17 16 14 14 13 12 12 12 13
5 2 5 5 8 6 7 5 5 7 4 4 6 4 5 3 7 10 8 6 11 8 12 8 10 16 20 26 27 27 20 14 13 15 12 13 14 14 14 12 11 12 15 15
4 1 3 6 8 15 4 1 13 9 8 7 7 6 8 6 6 8 7 4 7 9 14 21 19 15 17 24 24 25 19 14 11 6 6 6 7 10 12 13 13 14 15 17
1 2 4 7 10 14 3 6 8 3 7 3 7 8 7 8 10 5 9 9 6 12 16 20 7 17 19 24 22 19 17 11 6 4 3 5 9 12 11 12 13 15 18 19
3 2 2 6 9 10 7 14 8 6 7 5 6 9 15 11 9 7 6 4 5 3 9 10 10 15 22 22 21 19 15 10 8 5 4 9 12 13 14 15 15 17 18 20
1 2 1 5 6 6 6 3 4 11 12 13 8 7 11 9 6 6 7 6 7 7 7 7 16 22 21 21 17 15 13 10 7 5 6 8 11 13 14 15 17 18 20 24
6 4 0 1 4 7 7 9 6 4 3 8 11 7 11 8 6 6 6 5 6 7 9 17 20 21 20 20 16 13 8 5 6 6 8 10 12 12 11 12 14 19 21 25
6 7 4 2 3 7 2 2 9 2 3 7 2 7 8 8 4 2 7 6 8 12 14 19 19 19 19 17 12 8 6 7 7 8 7 8 10 12 15 18 22 25 27 30
4 3 1 2 1 2 3 4 3 4 7 4 10 6 6 4 5 6 9 6 12 13 18 21 21 19 16 13 11 10 7 7 10 10 11 12 14 16 19 22 24 26 29 30
3 1 1 3 2 6 4 1 4 5 3 11 7 2 7 6 7 6 8 9 13 13 17 24 23 19 15 10 13 16 16 25 15 10 15 19 20 19 21 21 25 26 26 26
1 2 3 5 6 7 4 7 11 15 10 10 5 10 8 5 5 3 6 8 11 15 16 25 24 20 19 18 14 14 11 18 23 20 21 23 23 22 21 24 24 25 24 25
6 4 2 7 7 15 11 4 8 17 21 23 5 3 7 7 9 9 4 4 10 13 19 21 22 27 21 18 16 20 14 19 19 20 22 24 23 24 25 24 25 25 30 30
4 4 2 6 7 13 20 12 2 10 14 16 6 4 8 9 8 8 10 13 21 22 27 29 26 24 22 20 19 20 18 17 20 22 22 21 22 22 22 24 23 26 28 28
2 5 4 4 5 13 9 7 17 15 14 7 7 8 11 14 8 14 12 18 22 21 24 26 26 24 21 21 21 19 17 16 17 17 17 19 20 23 26 22 24 24 25 26
Wind_Direction
280 101 253 218 212 230 173 195 189 213 230 188 333 163 174 176 207 192 173 187 192 180 164 161 154 150 149 142 136 122 81 109 47 62 43 63 41 63 137 102 69 53 36 37
311 238 233 188 201 201 23 40 288 323 196 95 21 196 185 181 198 186 169 197 198 141 160 166 157 163 161 156 147 135 120 119 138 128 76 290 293 317 83 100 65 50 39 38
278 278 324 30 74 68 267 272 54 71 16 66 15 326 167 194 191 193 180 188 158 163 164 170 167 170 165 160 158 154 141 134 109 140 110 225 61 221 79 93 46 332 61 60
279 309 306 95 114 132 253 209 84 43 56 307 32 309 338 173 198 202 195 184 169 169 169 174 171 170 171 168 164 160 149 159 148 152 132 4 42 58 69 36 4 324 149 91
278 305 354 9 75 147 233 74 99 94 120 78 108 114 335 334 219 208 197 188 190 174 173 178 172 173 170 166 170 169 160 160 175 164 174 99 78 13 48 26 6 42 152 106
280 291 256 273 5 349 66 105 34 65 99 19 235 121 238 213 235 227 198 197 189 168 173 173 172 164 161 167 171 174 167 172 179 183 187 182 190 297 179 317 63 30 165 87
287 285 318 55 348 349 45 48 352 1 336 243 99 61 234 269 247 29 189 189 183 170 168 171 162 162 160 168 175 177 175 177 183 187 192 192 212 247 273 289 29 19 8 359
302 317 12 359 342 277 112 147 147 240 312 263 189 216 229 280 23 21 360 185 150 150 166 160 159 159 160 169 178 180 183 184 183 186 193 193 207 240 156 275 340 3 15 2
250 274 223 280 229 317 106 24 178 152 311 16 156 307 300 63 64 30 284 59 187 183 162 155 161 156 164 173 181 187 185 189 187 189 188 202 211 213 232 259 284 280 301 299
252 178 201 293 306 41 111 36 21 350 357 315 333 298 250 134 168 219 251 267 74 195 165 165 161 164 167 178 181 188 193 186 184 191 201 212 208 219 230 244 281 264 273 312
201 163 192 111 253 66 25 42 84 191 215 157 275 265 231 190 171 156 42 9 30 359 176 162 145 154 166 177 182 184 180 180 186 198 209 207 198 220 231 256 271 275 277 302
348 142 156 207 179 114 143 177 156 161 255 206 195 293 23 113 127 85 323 66 11 8 313 146 151 157 165 173 182 185 184 185 197 201 198 203 219 231 233 247 268 274 276 291
325 7 18 343 22 301 202 229 115 109 63 224 133 261 32 358 53 31 36 18 25 28 32 337 151 161 170 175 181 185 183 187 199 206 204 210 221 228 241 252 257 265 266 289
70 77 142 205 253 264 299 219 155 155 128 198 223 217 247 273 81 74 60 58 72 34 53 13 262 251 171 176 171 174 172 181 170 171 195 214 225 240 249 250 258 269 281 281
98 109 335 306 314 303 322 168 267 193 166 177 276 160 222 154 149 112 137 187 118 146 174 217 224 208 159 165 152 167 162 143 138 155 205 217 231 247 253 260 269 271 275 281
127 270 347 313 296 310 327 258 300 345 95 193 49 52 98 104 116 157 212 216 181 199 215 222 177 153 155 150 163 151 147 155 168 177 259 275 274 261 251 255 270 272 280 285
142 176 49 289 313 322 341 353 334 66 43 61 56 118 139 145 144 170 214 208 221 231 27 38 81 125 147 155 154 148 152 157 164 190 259 277 281 267 264 264 267 267 274 281
193 10 103 266 340 326 236 152 270 73 42 23 43 94 125 135 147 133 177 154 81 76 82 87 97 109 137 132 137 153 154 163 181 213 249 275 283 282 271 263 263 270 275 279
178 140 113 127 276 274 21 5 332 109 9 9 359 359 143 123 98 45 103 96 98 103 95 107 112 109 105 123 125 120 120 150 199 235 261 271 283 285 287 280 286 290 290 287
93 95 121 13 304 283 247 282 286 204 340 305 252 317 57 58 78 225 114 98 72 76 92 96 90 90 89 94 91 79 43 16 352 332 320 311 302 292 293 296 295 297 294 295
19 350 134 109 164 265 249 210 258 72 239 231 259 268 100 112 181 178 128 124 119 113 107 105 96 88 84 80 71 54 29 9 346 327 317 316 308 305 304 303 307 315 318 321
120 92 297 9 111 294 190 289 179 287 352 216 265 81 139 156 186 168 157 148 137 129 124 121 113 108 101 90 69 48 16 5 340 0 353 339 330 329 330 329 337 341 342 339
338 169 201 179 214 237 69 35 33 32 7 287 188 33 68 68 50 142 185 162 152 143 139 129 127 127 105 95 74 35 355 7 354 356 1 354 355 2 1 357 360 353 354 346
209 161 23 16 2 28 93 89 72 73 43 303 32 132 79 66 54 40 35 145 116 136 136 135 108 98 83 72 53 39 16 13 12 22 19 9 10 10 3 2 2 2 355 8
54 74 332 279 37 69 11 342 297 128 179 238 254 97 83 77 62 67 49 55 73 74 80 91 94 94 82 66 57 48 36 24 25 20 13 15 8 3 359 360 3 15 14 14
295 193 172 230 135 113 186 227 262 246 218 154 113 73 58 83 77 74 80 84 92 93 91 88 90 89 85 75 60 44 26 21 24 15 22 9 2 358 354 13 19 23 20 19